Time,TemperatureF,DewpointF,PressureIn,WindDirection,WindDirectionDegrees,WindSpeedMPH,WindSpeedGustMPH,Humidity,HourlyPrecipIn,Conditions,Clouds,dailyrainin,SoftwareType,DateUTC
2013-06-20 08:13:00,71.8,64.9,29.94,East,90,2.7,-999.0,79,-99.99,,,0.00,Acu-Link.com,2013-06-20 12:13:00,
2013-06-20 11:22:00,79.2,66.4,29.94,ESE,112,3.7,-999.0,65,-99.99,,,0.00,Acu-Link.com,2013-06-20 15:22:00,
2013-06-20 11:47:00,79.7,63.1,29.93,SE,135,4.7,-999.0,57,-99.99,,,0.00,Acu-Link.com,2013-06-20 15:47:00,
2013-06-20 12:04:00,82.4,63.5,29.93,East,90,6.3,-999.0,53,-99.99,,,0.00,Acu-Link.com,2013-06-20 16:04:00,
2013-06-20 12:20:00,82.4,59.5,29.92,East,90,4.7,-999.0,46,-99.99,,,0.00,Acu-Link.com,2013-06-20 16:20:00,
2013-06-20 12:36:00,83.3,59.1,29.92,North,0,3.2,-999.0,44,-99.99,,,0.00,Acu-Link.com,2013-06-20 16:36:00,
2013-06-20 12:56:00,84.4,62.5,29.92,North,0,7.3,-999.0,48,-99.99,,,0.00,Acu-Link.com,2013-06-20 16:56:00,
2013-06-20 13:44:00,83.7,61.9,29.91,East,90,4.2,-999.0,48,-99.99,,,0.00,Acu-Link.com,2013-06-20 17:44:00,
2013-06-20 15:54:00,81.9,61.4,29.89,NNW,337,2.7,-999.0,50,-99.99,,,0.00,Acu-Link.com,2013-06-20 19:54:00,
2013-06-20 16:10:00,86.4,63.1,29.89,NNW,337,3.7,-999.0,46,-99.99,,,0.00,Acu-Link.com,2013-06-20 20:10:00,
2013-06-20 16:25:00,84.0,61.6,29.88,NE,45,4.7,-999.0,47,-99.99,,,0.00,Acu-Link.com,2013-06-20 20:25:00,
2013-06-20 16:40:00,86.2,62.3,29.89,NNE,22,2.7,-999.0,45,-99.99,,,0.00,Acu-Link.com,2013-06-20 20:40:00,
2013-06-20 17:21:00,90.3,64.1,29.89,NNE,22,1.1,-999.0,42,-99.99,,,0.00,Acu-Link.com,2013-06-20 21:21:00,
2013-06-20 17:36:00,89.8,62.9,29.90,SW,225,0.0,-999.0,41,-99.99,,,0.00,Acu-Link.com,2013-06-20 21:36:00,
2013-06-20 17:51:00,89.2,61.7,29.89,WSW,247,1.1,-999.0,40,-99.99,,,0.00,Acu-Link.com,2013-06-20 21:51:00,
2013-06-20 18:06:00,92.8,63.4,29.88,ESE,112,1.7,-999.0,38,-99.99,,,0.00,Acu-Link.com,2013-06-20 22:06:00,
2013-06-20 18:22:00,86.5,62.0,29.88,ESE,112,4.7,-999.0,44,-99.99,,,0.00,Acu-Link.com,2013-06-20 22:22:00,
2013-06-20 18:37:00,86.4,64.4,29.87,ESE,112,2.7,-999.0,48,-99.99,,,0.00,Acu-Link.com,2013-06-20 22:37:00,
2013-06-20 20:25:00,79.5,61.4,29.88,ENE,67,1.7,-999.0,54,-99.99,,,0.00,Acu-Link.com,2013-06-21 00:25:00,
2013-06-20 20:54:00,77.0,63.4,29.88,SE,135,0.0,-999.0,63,-99.99,,,0.00,Acu-Link.com,2013-06-21 00:54:00,
2013-06-20 21:21:00,72.0,64.0,29.90,SE,135,0.0,-999.0,76,-99.99,,,0.00,Acu-Link.com,2013-06-21 01:21:00,
2013-06-20 21:37:00,70.0,64.9,29.89,ESE,112,0.0,-999.0,84,-99.99,,,0.00,Acu-Link.com,2013-06-21 01:37:00,
2013-06-20 21:58:00,68.0,64.3,29.90,NE,45,0.0,-999.0,88,-99.99,,,0.00,Acu-Link.com,2013-06-21 01:58:00,
2013-06-20 22:18:00,67.8,64.1,29.92,ESE,112,0.0,-999.0,88,-99.99,,,0.00,Acu-Link.com,2013-06-21 02:18:00,